STARLINK-4594, 53638

Orbit data source: Space-Track

STARLINK-4594, 53638 is a payload satellite owned by SpaceX/Seattle (US) in LEO that was launched on Sun, 28 Aug 2022 UTC via an FALCON 9 launch vehicle from the Air Force Eastern Test Range (AFETR). Payload-class satellites include a variety of spacecraft equipped with specific instruments for various scientific and technological missions. These include communications satellites like Starlink; space stations such as the ISS; scientific satellites like the Hubble; Earth observation satellites from companies like Planet Labs, Umbra, and HawkEye 360; GPS; miniature CubeSats for education and research; and military/defense satellites.

Loading next visibility...
Identifier
53638, 2022-104BC
Orbit
LEO
Country
Flag of USUS
Related business
Manufacturer
SpaceX/Seattle
Mission
Operational Commercial Communications
Bus & Motor
STARLINK, Unknown motor
Mass
300 kg wet, ~290 kg dry
Launch date (UTC)
2022-08-28 (3 years ago)
Launch vehicle
FALCON 9
Launch site
Air Force Eastern Test Range (AFETR)
Object type
Payload
Rocket body
Debris
Shape & HBR
Box + 1 Pan, 10.1 m
Radar Cross Section
13.562 m², Large (>1 m²)

Expand to show TLE details & history
Last TLE update: 17 hours ago

TLE from 17 hours ago
0 STARLINK-4594
1 53638U 22104BC  25347.13473525 -.00001225  00000-0 -58905-4 0  9998
2 53638  53.2186 252.3125 0001653  84.4268 275.6913 15.08834792183168
Epoch: 2025-12-13T03:14Z
TLE epoch observation values (Epoch: 2025-12-13T03:14:01.125Z)
Latitude
-0°
Longitude
121.74145°
Altitude
540.544 km
Speed
7.593 km/s
True Right ascension
16h 49m 14s
True Declination
0° 00' 00"
Sunlit
Object was in daylight at epoch
Visualization orbit readout
Latitude
Unknown
Longitude
Unknown
Altitude
Unknown
Speed
Unknown
Apparent Right ascension
Unknown
Apparent Declination
Unknown
Sunlit
N/A
Visualization observer readout
Local Sidereal Time
19:03:25
Azimuth
Unknown
Elevation
Unknown
Doppler factor
Unknown
Orbital elements
Apogee altitude
541.148 km
Perigee altitude
538.86 km
Semi-major axis
6,918.141 km
Eccentricity
0.00017
Inclination
53.2186°
RAAN
252.3125°
Arg. of periapsis
84.4268°
True anomaly
275.67245°
Mean anomaly
275.6913°
Eccentric anomaly
275.68188°
Mean motion
3.77189 °/min
Orbital period
95.44 mins
BSTAR
-0.000058905
Loading maneuver chart data...
Computing Atmospheric mass density...
Loading historical data...
Loading historical data...
Loading historical data...
Loading historical data...
Loading historical data...
Loading historical data...
Loading historical data...

Documentation

Showing up to 5 results
|